Satellite: RS-30
Catalog number: 32953
Epoch time:      11006.76705946
Element set:     365
Inclination:      082.5019 deg
RA of node:       263.0831 deg
Eccentricity:    0.0019756
Arg of perigee:   020.5859 deg
Mean anomaly:     339.6010 deg
Mean motion:   12.43010126 rev/day
Decay rate:        1.0e-07 rev/day^2
Epoch rev:           11903
Checksum:              264

Satellite: TACSAT-3
Catalog number: 35001
Epoch time:      11005.57070625
Element set:    0488
Inclination:      040.4547 deg
RA of node:       076.3355 deg
Eccentricity:    0.0021588
Arg of perigee:   077.8547 deg
Mean anomaly:     282.4686 deg
Mean motion:   15.44301578 rev/day
Decay rate:      6.782e-05 rev/day^2
Epoch rev:           09190
Checksum:              311

Satellite: PHARMSAT
Catalog number: 35002
Epoch time:      11005.60098602
Element set:     440
Inclination:      040.4692 deg
RA of node:       073.6660 deg
Eccentricity:    0.0023578
Arg of perigee:   082.4320 deg
Mean anomaly:     277.9174 deg
Mean motion:   15.44561913 rev/day
Decay rate:      5.983e-05 rev/day^2
Epoch rev:            9193
Checksum:              284

Satellite: HAWKSAT1
Catalog number: 35003
Epoch time:      11006.48667854
Element set:     480
Inclination:      040.4572 deg
RA of node:       054.8524 deg
Eccentricity:    0.0022332
Arg of perigee:   114.9470 deg
Mean anomaly:     245.3671 deg
Mean motion:   15.50732267 rev/day
Decay rate:     1.7174e-04 rev/day^2
Epoch rev:            9222
Checksum:              276

Satellite: CP6
Catalog number: 35004
Epoch time:      11006.50115917
Element set:     482
Inclination:      040.4587 deg
RA of node:       051.3626 deg
Eccentricity:    0.0021756
Arg of perigee:   121.5889 deg
Mean anomaly:     238.7052 deg
Mean motion:   15.52801392 rev/day
Decay rate:     2.0444e-04 rev/day^2
Epoch rev:            9225
Checksum:              277

Satellite: AEROCUB3
Catalog number: 35005
Epoch time:      11006.09222617
Element set:     610
Inclination:      040.4461 deg
RA of node:       021.7975 deg
Eccentricity:    0.0025578
Arg of perigee:   084.1677 deg
Mean anomaly:     280.7191 deg
Mean motion:   16.39196088 rev/day
Decay rate:  1.4049365e-01 rev/day^2
Epoch rev:            9254
Checksum:              305

Satellite: METEOR-M
Catalog number: 35865
Epoch time:      11006.64893187
Element set:     988
Inclination:      098.7319 deg
RA of node:       063.6946 deg
Eccentricity:    0.0002930
Arg of perigee:   123.2974 deg
Mean anomaly:     236.8454 deg
Mean motion:   14.21833934 rev/day
Decay rate:       1.76e-06 rev/day^2
Epoch rev:            6763
Checksum:              335

Satellite: RS-38
Catalog number: 35869
Epoch time:      11006.66818595
Element set:       0
Inclination:      098.7293 deg
RA of node:       063.7533 deg
Eccentricity:    0.0005117
Arg of perigee:   130.5111 deg
Mean anomaly:     229.6489 deg
Mean motion:   14.21997411 rev/day
Decay rate:       1.77e-06 rev/day^2
Epoch rev:            6764
Checksum:              316

/EX


_______________________________________________
Via the Keps mailing list courtesy of AMSAT-NA
http://amsat.org/mailman/listinfo/keps

--- ViaMAIL!/WC v1.60d
 * Origin: Chowdanet (401-724-4410) telnet://chowdanet.com  (1:323/120)